Starlink 34816

operational
NORAD ID: 65467 Int'l Des: 2025-195 Owner: SPXS Country: US Constellation: starlink
LEOCIRCULAR

About Starlink 34816

Description loading...

Live Position

Loading 3D Globe...

Upcoming Passes

Altitude History

Altitude vs Time

uPlot chart will show altitude changes over time

Two-Line Element Set

1 65467U 25195K 26102.68296440 .00019576 00000-0 67110-3 0 9996
2 65467 53.1545 100.6082 0000894 77.3607 282.7494 15.30211498 35199
Epoch: Apr 12, 2026 • Age: 12 hours

Current Status

Altitude 488.5 km
Velocity 7.62 km/s
Sub-Earth Point -39.17°S, 48.7°E
Launch Date Sep 3, 2025
Age 0.6 years
Type internet

Technical Details

Classification Payload
Mass 575.00 kg
Dry Mass 530.00 kg
Total Mass 575.00 kg
Length 0.30 m
Diameter 4.10 m
Span 29.00 m
Shape Box + pan
Manufacturer SPXS
Bus Type Starlink V2MO
Phase Status In Orbit
Owner/State SPXS/US

Large Constellations

Loading constellations...